www.pogodaiklimat.ru

Погода и климат >> Архив погоды >> Норвегия >> Мыкен


ПОГОДА на Мыкене

  • Прогноз погоды на Мыкене
  • Монитор погоды на Мыкене

АРХИВ ПОГОДЫ на Мыкене

Время (UTC), дата Ветер
(напр.,м/с)
 
Видим.   Явления Облачность Т
(С)
Тd
(С)
f
(%)
Тe
(С)
Тes
(С)
Комфортность P
(гПа)
Po
(гПа)
Тmin
(С)
Tmax
(С)
R
(мм)
R24
(мм)
S
(см)
19 18.08 С 1-2
{2}
н/о н/о +13.1 +11.2 88 +13 +13 1001.0 999.0
20 18.08 С 3-3
{3}
н/о н/о +13.1 +11.5 90 +12 +12 1001.0 999.0
21 18.08 СВ 5-5
{5}
40 км 8/0 2000 м
[Ac As]
+13.3 +11.9 91 +11 +11 1000.8 998.8
22 18.08 СВ 7-7
{7}
н/о н/о +13.3 +11.7 90 +11 +11 1000.5 998.5
23 18.08 СВ 6-7
{8}
н/о н/о +13.5 +11.7 89 +11 +11 1000.0 998.0
00 19.08 СВ 8-9
{9}
50 км 4/0 2000 м
[Ac As]
+13.5 +11.7 89 +11 +11 999.5 997.5
01 19.08 СВ 8-9
{9}
н/о н/о +13.7 +11.1 84 +11 +11 999.1 997.1
02 19.08 СВ 9-10
{10}
н/о н/о +13.5 +11.9 90 +11 +11 998.5 996.5
03 19.08 СВ 8-9
{10}
н/о н/о +13.5 +12.2 92 +11 +11 998.0 996.0
04 19.08 СВ 8-8
{10}
н/о н/о +13.5 +12.2 92 +11 +11 997.9 995.9
05 19.08 СВ 7-9
{9}
н/о н/о +13.7 +12.3 91 +11 +11 997.4 995.4
06 19.08 СВ 7
{10}
50 км 4/1 300 м
[St Ac As Ci fib]
+13.8 +12.7 93 +11 +12 997.1 995.1 +13.0 +14.0
07 19.08 СВ 6-7
{7}
н/о н/о +13.9 +12.6 92 +12 +12 996.9 994.9
08 19.08 С 6-6
{7}
н/о н/о +14.1 +12.7 91 +12 +12 996.6 994.6
09 19.08 С 5-5
{6}
50 км 3/1 300 м
[St Ci fib]
+14.3 +12.7 90 +13 +15 996.3 994.3
10 19.08 С 5-6
{6}
н/о н/о +14.4 +12.4 88 +13 +13 996.2 994.2
11 19.08 С 5-6
{6}
н/о н/о +14.6 +12.8 89 +13 +13 996.3 994.3
12 19.08 С 4-4
{7}
40 км 5/1 300 м
[St Ac As Ci fib]
+14.6 +12.8 89 +13 +17 996.6 994.6
13 19.08 С 4-5
{5}
н/о н/о +14.7 +12.9 89 +13 +13 996.8 994.8
14 19.08 С 3-4
{5}
н/о н/о +15.1 +13.0 87 +14 +14 997.1 995.1
15 19.08 С 4-5
{5}
40 км 6/1 300 м
[St Ac As Ci fib]
+14.8 +13.0 89 +14 +15 997.4 995.4
16 19.08 С 3-4
{5}
н/о н/о +14.5 +12.5 88 +14 +14 997.7 995.7
17 19.08 С 4-5
{5}
н/о н/о +13.5 +12.2 92 +12 +12 998.0 996.0
18 19.08 С 5-6
{6}
100 м туман ?/? +12.3 +11.8 97 +10 +10 998.3 996.3 +12.2 +15.2
19 19.08 С 4-5
{6}
н/о н/о +12.8 +12.3 97 +11 +11 998.9 996.9
20 19.08 С 3-4
{5}
н/о н/о +12.4 +11.8 96 +11 +11 999.5 997.5
21 19.08 С 1-2
{4}
15 км {туман} 10/10 300 м
[St]
+12.4 +11.5 94 +12 +12 1000.0 998.0
22 19.08 -4
{4}
н/о н/о +12.6 +11.3 92 1000.3 998.3
23 19.08 С 1-2
{3}
н/о н/о +12.5 +11.1 91 +12 +12 1000.7 998.7
00 20.08 ЮВ 1-1
{6}
15 км {туман} 10/10 300 м
[St]
+12.5 +10.9 90 +12 +12 1001.1 999.1
01 20.08 ЮЗ 2-3
{3}
н/о н/о +12.6 +10.8 89 +12 +12 1001.5 999.5
02 20.08 Ю 2-4
{4}
н/о н/о +12.6 +10.8 89 +12 +12 1001.8 999.8
03 20.08 Ю 4-5
{6}
н/о н/о +12.6 +11.0 90 +11 +11 1002.1 1000.1
04 20.08 Ю 4-5
{6}
н/о н/о +13.0 +11.6 91 +11 +11 1002.6 1000.6
05 20.08 Ю 6-8
{8}
н/о н/о +13.8 +12.7 93 +12 +12 1002.8 1000.8
06 20.08 Ю 6-8
{9}
н/о н/о +13.9 +12.1 89 +12 +12 1003.2 1001.2 +12.2 +13.9
07 20.08 Ю 6-8
{10}
н/о н/о +14.1 +12.2 88 +12 +12 1003.9 1001.9
08 20.08 Ю 6-7
{8}
н/о н/о +14.1 +12.5 90 +12 +12 1004.4 1002.4
09 20.08 Ю 5-7
{7}
30 км 10/1 300 м
[Cu Sc Ac As]
+14.3 +11.5 83 +13 +13 1004.9 1002.9
10 20.08 Ю 4-5
{7}
н/о н/о +14.4 +11.4 82 +13 +13 1005.2 1003.2
11 20.08 Ю 7-10
{10}
н/о н/о +16.4 +10.7 69 +15 +15 1005.4 1003.4
12 20.08 Ю 8-10
{12}
40 км 8/1 300 м
[Cb calv Ac As]
+14.9 +12.2 84 +13 +13 1006.0 1004.0
13 20.08 Ю 8-11
{12}
н/о н/о +14.6 +12.1 85 +12 +12 1006.6 1004.6
14 20.08 Ю 8-11
{11}
н/о н/о +15.3 +11.9 80 +13 +13 1006.9 1004.9
15 20.08 Ю 9-12
{12}
40 км 6/1 300 м
[Cu med, cong Ac As Ci fib]
+14.9 +11.1 78 +13 +13 1006.8 1004.8
16 20.08 Ю 9-11
{12}
н/о н/о +14.7 +10.7 77 +12 +12 1007.0 1005.0
17 20.08 Ю 9-11
{12}
н/о н/о +14.6 +9.8 73 +12 +12 1007.2 1005.2
18 20.08 Ю 10-12
{13}
20 км 8/1 300 м
[St Ac As]
+14.5 +10.3 76 +12 +12 1007.3 1005.3 +13.8 +16.5
19 20.08 Ю 13-16
{16}
н/о н/о +14.1 +10.7 80 +11 +11 1007.1 1005.1
20 20.08 Ю 12-16
{16}
н/о н/о +14.0 +10.8 81 +11 +11 1007.2 1005.2
21 20.08 Ю 14-18
{18}
15 км в посл. час ливневой дождь 9/1 300 м
[Cb calv Ac cuf]
+13.5 +11.7 89 +10 +10 1007.3 1005.3 0.2
22 20.08 Ю 12-15
{18}
н/о н/о +13.4 +11.6 89 +10 +10 1007.4 1005.4
23 20.08 Ю 11-15
{16}
н/о н/о +13.2 +11.6 90 +10 +10 1007.9 1005.9
00 21.08 Ю 11-14
{18}
15 км {ливн. осадки} 9/1 300 м
[Cb calv Ac cuf]
+13.1 +11.5 90 +10 +10 1008.2 1006.2 0.2
01 21.08 Ю 10-14
{15}
н/о н/о +13.1 +11.3 89 +10 +10 1008.6 1006.6
02 21.08 Ю 12-16
{16}
н/о н/о +12.9 +11.5 91 +9 +9 1008.5 1006.5
03 21.08 Ю 10-14
{15}
н/о н/о +13.2 +11.1 87 +10 +10 1009.0 1007.0
04 21.08 Ю 12-15
{16}
н/о н/о +13.2 +11.3 88 +10 +10 1008.7 1006.7
05 21.08 Ю 10-15
{15}
н/о н/о +12.9 +11.6 92 +9 +9 1009.3 1007.3 0.9
06 21.08 Ю 10
{16}
15 км {ливн. осадки} 6/1 300 м
[Cb calv Ac cuf]
+13.1 +10.8 86 +10 +10 1009.9 1007.9 +12.8 +14.4 1
07 21.08 ЮЗ 9-13
{13}
н/о н/о +13.6 +11.1 85 +11 +11 1010.4 1008.4
08 21.08 ЮЗ 11-15
{15}
н/о н/о +14.1 +10.9 81 +11 +11 1010.8 1008.8
09 21.08 ЮЗ 9-12
{15}
15 км 9/1 300 м
[Cb calv Ac cuf]
+14.3 +11.5 83 +12 +12 1011.6 1009.6
10 21.08 ЮЗ 9-12
{13}
н/о н/о +14.1 +11.3 83 +11 +11 1012.1 1010.1
11 21.08 ЮЗ 9-14
{14}
н/о н/о +13.1 +11.0 87 +10 +10 1012.6 1010.6 0.2
12 21.08 ЮЗ 7-10
{15}
15 км в посл. час ливневой дождь 9/1 300 м
[Cb calv Ac cuf]
+13.4 +11.6 89 +11 +11 1013.5 1011.5 1
13 21.08 ЮЗ 6-7
{9}
н/о н/о +12.9 +11.3 90 +10 +10 1014.3 1012.3 1
14 21.08 ЮЗ 5-7
{7}
н/о н/о +12.9 +11.5 91 +11 +11 1014.9 1012.9 0.1
15 21.08 ЮЗ 5-6
{8}
15 км в посл. час ливневой дождь 9/1 300 м
[Cb calv Ac cuf]
+12.8 +11.4 91 +11 +11 1015.3 1013.3 1
16 21.08 ЮЗ 6-8
{8}
н/о н/о +12.6 +11.5 93 +10 +10 1015.7 1013.7 0.4
17 21.08 ЮЗ 5-6
{7}
н/о н/о +12.8 +11.5 92 +11 +11 1016.1 1014.1 0.1
18 21.08 ЮЗ 5-6
{9}
10 км ливневой дождь 9/3 300 м
[Cb calv Ac cuf]
+12.3 +11.2 93 +10 +10 1016.5 1014.4 +12.2 +14.5 5
19 21.08 ЮЗ 5-7
{7}
н/о н/о +12.0 +11.1 94 +9 +9 1016.7 1014.6 5
20 21.08 ЮЗ 4-7
{7}
н/о н/о +11.7 +10.8 94 +9 +9 1016.9 1014.8 1
21 21.08 ЮЗ 3-4
{7}
15 км {ливн. осадки} 9/1 300 м
[Cb calv Ac cuf]
+11.9 +10.8 93 +10 +10 1017.2 1015.1 0.1
22 21.08 ЮЗ 3-5
{6}
н/о н/о +11.9 +10.3 90 +10 +10 1017.3 1015.2
23 21.08 ЮЗ 2-3
{6}
н/о н/о +11.6 +10.5 93 +10 +10 1017.3 1015.2
00 22.08 Ю 3-5
{7}
15 км {ливн. осадки} 9/1 300 м
[Cb calv Ac cuf]
+12.1 +10.8 92 +10 +10 1017.5 1015.4 6
01 22.08 ЮЗ 6-9
{9}
н/о н/о +12.4 +10.8 90 +10 +10 1017.4 1015.3
02 22.08 ЮЗ 6-9
{9}
н/о н/о +12.0 +10.1 88 +9 +9 1017.5 1015.4
03 22.08 ЮЗ 7-9
{10}
н/о н/о +11.8 +10.2 90 +9 +9 1017.4 1015.3 0.6
04 22.08 Ю 9-11
{11}
н/о н/о +11.8 +10.2 90 +8 +8 1017.1 1015.0
05 22.08 Ю 8-12
{15}
н/о н/о +11.7 +10.9 95 +8 +8 1017.1 1015.0 6
06 22.08 Ю 9
{15}
15 км {ливн. осадки} 9/1 300 м
[Cb calv Ac cuf]
+12.1 +9.7 85 +9 +9 1017.0 1014.9 +11.5 +12.5 13
07 22.08 Ю 10-14
{14}
н/о н/о +12.2 +9.0 81 +9 +9 1017.0 1014.9
08 22.08 Ю 10-12
{13}
н/о н/о +12.4 +8.7 78 +9 +9 1017.1 1015.0
09 22.08 Ю 9-12
{13}
15 км 9/1 300 м
[Cb calv Ac cuf]
+13.2 +8.5 73 +10 +10 1017.3 1015.3
10 22.08 Ю 8-11
{13}
н/о н/о +12.8 +8.5 75 +10 +10 1017.3 1015.3
11 22.08 Ю 7-9
{11}
н/о н/о +13.3 +7.8 69 +11 +11 1017.3 1015.3
12 22.08 Ю 5-7
{14}
30 км 6/1 300 м
[Cb calv Ac cuf]
+13.5 +7.7 68 +12 +14 1017.2 1015.2
13 22.08 Ю 5-6
{8}
н/о н/о +13.5 +7.7 68 +12 +12 1017.0 1015.0
14 22.08 ЮЗ 3-4
{6}
н/о н/о +13.6 +7.6 67 +13 +13 1016.7 1014.7
15 22.08 З 2-3
{3}
50 км 4/1 300 м
[Cu med, cong Ac As]
+13.6 +7.4 66 +13 +15 1016.0 1014.0
16 22.08 С 3-4
{4}
н/о н/о +12.9 +8.2 73 +12 +12 1015.4 1013.4
17 22.08 С 5-5
{5}
н/о н/о +12.7 +7.4 70 +11 +11 1014.7 1012.7
18 22.08 СВ 6-7
{8}
40 км 6/1 300 м
[Cu med, cong Ac As Ci fib]
+12.7 +8.8 77 +10 +10 1014.2 1012.2 +11.7 +14.1
19 22.08 СВ 9-10
{10}
н/о н/о +12.7 +9.2 79 +10 +10 1013.8 1011.8
20 22.08 СВ 11-11
{11}
н/о н/о +12.7 +9.5 81 +9 +9 1013.2 1011.2
21 22.08 СВ 10-12
{12}
40 км 6/0 2000 м
[Ac As]
+12.8 +10.2 84 +9 +9 1012.7 1010.7
22 22.08 СВ 10-12
{12}
н/о н/о +12.9 +9.9 82 +10 +10 1012.0 1010.0
23 22.08 СВ 8-10
{11}
н/о н/о +13.0 +10.9 87 +10 +10 1011.6 1009.6
00 23.08 СВ 8-9
{12}
40 км 9/0 2000 м
[Ac As]
+13.0 +10.9 87 +10 +10 1011.3 1009.3
01 23.08 СВ 6-7
{8}
н/о н/о +13.0 +11.2 89 +11 +11 1011.2 1009.2
02 23.08 В 5-5
{7}
н/о н/о +13.1 +11.2 88 +11 +11 1011.0 1009.0
03 23.08 ЮВ 3-4
{6}
н/о н/о +13.3 +10.7 84 +12 +12 1010.9 1008.9
04 23.08 ЮЗ 4-5
{6}
н/о н/о +13.3 +11.7 90 +12 +12 1010.8 1008.8
05 23.08 ЮЗ 3-5
{6}
н/о н/о +13.1 +11.8 92 +12 +12 1011.0 1009.0
06 23.08 З 2
{8}
10 км слаб. ливневой дождь 9/3 300 м
[Cb calv Ac cuf]
+13.2 +12.3 94 +12 +13 1011.1 1009.1 +12.6 +13.5 0.2
07 23.08 С 1-1
{2}
н/о н/о +13.0 +11.4 90 +13 +13 1011.3 1009.3 0.1
08 23.08 В 2-3
{3}
н/о н/о +13.5 +10.5 82 +13 +13 1011.6 1009.6
09 23.08 ЮВ 3-3
{3}
15 км {ливн. осадки, дождь} 10/10 300 м
[Sc]
+13.3 +10.5 83 +12 +12 1012.0 1010.0
10 23.08 ЮВ 2-2
{3}
н/о н/о +14.0 +11.0 82 +13 +13 1012.3 1010.3
11 23.08 Ю 1-2
{3}
н/о н/о +15.0 +11.0 77 +16 +16 1012.8 1010.8
12 23.08 СВ 1-2
{3}
20 км {ливн. осадки, дождь} 9/1 300 м
[Cb calv Ac cuf]
+14.2 +10.6 79 +15 +17 1013.3 1011.3 0.1
13 23.08 СЗ 2-3
{3}
н/о н/о +14.4 +10.6 78 +14 +14 1013.8 1011.8
14 23.08 З 2-3
{4}
н/о н/о +14.1 +10.3 78 +14 +14 1014.4 1012.4
15 23.08 З 2-3
{3}
30 км 8/1 300 м
[Cb calv Ac cuf Ci fib]
+13.8 +10.6 81 +13 +15 1014.9 1012.9
16 23.08 З 2-3
{3}
н/о н/о +14.5 +10.5 77 +14 +14 1015.3 1013.3
17 23.08 С 4-5
{5}
н/о н/о +13.4 +10.9 85 +12 +12 1015.7 1013.7
18 23.08 С 5-6
{6}
20 км 8/1 300 м
[Cb calv Ac cuf]
+13.3 +10.3 82 +11 +11 1016.2 1014.2 +12.9 +15.1 0.1
19 23.08 С 4-6
{6}
н/о н/о +13.1 +10.5 84 +11 +11 1016.9 1014.9
20 23.08 С 6-6
{6}
н/о н/о +12.7 +10.4 86 +10 +10 1017.6 1015.6
21 23.08 С 7-9
{9}
20 км 9/0 2000 м
[Ac As]
+12.2 +9.9 86 +9 +9 1018.1 1016.0
22 23.08 С 7-8
{9}
н/о н/о +11.8 +9.4 85 +9 +9 1018.4 1016.3
23 23.08 СЗ 7-9
{9}
н/о н/о +11.9 +9.3 84 +9 +9 1019.2 1017.1
00 24.08 СЗ 7-9
{9}
20 км 9/0 2000 м
[Ac As]
+11.7 +9.1 84 +9 +9 1019.7 1017.6
01 24.08 С 7-9
{9}
н/о н/о +11.7 +9.1 84 +9 +9 1020.2 1018.1
02 24.08 С 7-9
{9}
н/о н/о +11.6 +8.5 81 +8 +8 1021.0 1018.9
03 24.08 С 8-9
{10}
н/о н/о +11.6 +8.5 81 +8 +8 1021.3 1019.2
04 24.08 С 8-9
{10}
н/о н/о +11.8 +6.5 70 +9 +9 1021.4 1019.3
05 24.08 С 7-8
{9}
н/о н/о +11.9 +5.6 65 +9 +9 1021.7 1019.6
06 24.08 С 4-6
{10}
н/о н/о +11.9 +7.0 72 +10 +10 1022.4 1020.3 +11.4 +13.3
07 24.08 С 3-3
{5}
н/о н/о +12.3 +8.0 75 +11 +11 1022.6 1020.5
08 24.08 СЗ 2-4
{4}
н/о н/о +12.3 +7.8 74 +11 +11 1023.0 1020.9
09 24.08 З 3-4
{4}
20 км 8/1 300 м
[Cu med, cong Ac As]
+12.7 +8.4 75 +11 +13 1023.3 1021.2
10 24.08 З 2-3
{4}
н/о н/о +12.8 +8.7 76 +12 +12 1023.4 1021.3
11 24.08 ЮЗ 2-4
{4}
н/о н/о +13.3 +8.6 73 +13 +13 1023.7 1021.6
12 24.08 ЮЗ 3-4
{5}
20 км 9/1 300 м
[Cu med, cong Ac As]
+13.4 +8.1 70 +12 +14 1023.7 1021.6
13 24.08 З 2-3
{3}
н/о н/о +14.2 +8.4 68 +14 +14 1023.6 1021.5
14 24.08 Ю 2-3
{3}
н/о н/о +13.7 +7.5 66 +13 +13 1023.3 1021.2
15 24.08 Ю 2-2
{4}
30 км 6/1 300 м
[Cu med, cong Ac As Ci fib]
+13.8 +7.3 65 +13 +15 1022.7 1020.6
16 24.08 В 1-2
{2}
н/о н/о +13.3 +8.0 70 +14 +14 1022.2 1020.1
17 24.08 В 2-3
{3}
н/о н/о +12.9 +8.6 75 +12 +12 1021.6 1019.5
18 24.08 В 4-4
{4}
20 км 10/0 2000 м
[Ac As]
+13.1 +9.9 81 +11 +11 1021.1 1019.0 +11.6 +14.2
19 24.08 В 5-6
{6}
н/о н/о +13.2 +10.6 84 +11 +11 1020.6 1018.5
20 24.08 ЮВ 6-7
{7}
н/о н/о +13.3 +11.4 88 +11 +11 1020.2 1018.1
21 24.08 ЮВ 5-6
{7}
10 км слаб. дождь 10/3 300 м
[Frnb As op]
+13.5 +11.6 88 +11 +11 1019.2 1017.2 0.1
22 24.08 ЮВ 5-6
{7}
н/о н/о +13.6 +11.8 89 +12 +12 1018.4 1016.4
23 24.08 ЮВ 7-8
{8}
н/о н/о +13.9 +11.6 86 +12 +12 1017.8 1015.8 0.1
00 25.08 Ю 7-11
{11}
10 км слаб. дождь 10/3 300 м
[Frnb As op]
+13.9 +11.6 86 +12 +12 1017.2 1015.2 0.2
01 25.08 ЮВ 6-8
{11}
н/о н/о +13.5 +12.2 92 +11 +11 1016.4 1014.4 0.4
02 25.08 Ю 9-11
{11}
н/о н/о +14.2 +12.2 88 +12 +12 1015.3 1013.3 0.2
03 25.08 Ю 10-13
{13}
н/о н/о +14.4 +12.6 89 +12 +12 1014.6 1012.6 0.9
04 25.08 Ю 11-13
{14}
н/о н/о +14.3 +13.0 92 +11 +11 1014.2 1012.2
05 25.08 Ю 11-14
{15}
н/о н/о +14.5 +13.1 91 +12 +12 1014.3 1012.3
06 25.08 Ю 10-13
{15}
н/о {дождь} н/о +14.1 +12.5 90 +11 +11 1014.5 1012.5 +13.0 +14.7 2
07 25.08 Ю 12-15
{15}
н/о н/о +13.8 +12.4 91 +10 +10 1014.0 1012.0 0.7
08 25.08 Ю 14-20
{20}
н/о н/о +13.2 +12.1 93 +9 +9 1012.9 1010.9 3
09 25.08 Ю 13-17
{19}
10 км слаб. дождь 10/3 300 м
[Frnb As op]
+13.3 +12.2 93 +10 +10 1012.5 1010.5 2
10 25.08 Ю 14-18
{18}
н/о н/о +12.8 +11.7 93 +9 +9 1012.0 1010.0 2
11 25.08 Ю 11-15
{18}
н/о н/о +13.1 +12.2 94 +10 +10 1011.4 1009.4 0.8
12 25.08 Ю 11-14
{20}
10 км слаб. дождь 10/3 300 м
[Frnb As op]
+13.3 +12.5 95 +10 +10 1011.4 1009.4 8
13 25.08 ЮЗ 12-17
{17}
н/о н/о +13.4 +11.8 90 +10 +10 1011.3 1009.3
14 25.08 ЮЗ 10-15
{18}
н/о н/о +13.2 +11.6 90 +10 +10 1011.7 1009.7 0.1
15 25.08 ЮЗ 13-18
{18}
10 км слаб. дождь 10/3 300 м
[Frnb As op]
+12.4 +11.8 96 +8 +8 1011.7 1009.7 0.5
16 25.08 ЮЗ 13-20
{20}
н/о н/о +12.4 +11.3 93 +8 +8 1012.0 1010.0 0.1
17 25.08 ЮЗ 13-18
{19}
н/о н/о +12.4 +11.5 94 +8 +8 1012.3 1010.3
18 25.08 ЮЗ 13-18
{20}
10 км слаб. дождь 10/3 300 м
[Frnb As op]
+12.2 +11.6 96 +8 +8 1013.0 1011.0 +12.1 +14.1 9
19 25.08 ЮЗ 12-17
{19}
н/о н/о +12.3 +11.7 96 +8 +8 1013.5 1011.5 0.1

 

Местоположение метеостанции Мыкен (Норвегия): широта 66.77 долгота 12.48 высота над уровнем моря 17 м.

В архиве по умолчанию представлена погода на Мыкене за последнюю неделю. Архивные данные за месяц целиком и за предыдущие месяцы, начиная с января 2011 года, Вы можете получить, выбрав интересующий диапазон дат из раскрывающегося списка и нажав кнопку "Ввод!".


*Определитесь, кто Вы:
робот инопланетянин человек

Внимание! Время в таблицах - всемирное. Для получения местного времени необходимо прибавить поправку, которая равна 1 ч.

Смотрите также архив погоды в соседних городах и на ближайших метеорологических станциях:

Погода в Солвер III (Норвегия) (45 км)
Погода в Рейпе (Норвегия) (53 км)
Погода в Рост аэропорту (Норвегия) (85 км)
Погода в Скамдале (Норвегия) (86 км)
Погода в Сельджеля (Норвегия) (86 км)
Погода в Саннесшёэн аэропорту (Норвегия) (90 км)
Погода в Аэропорту Mo i Rana (Норвегия) (93 км)
Погода в Хеллигвере (Норвегия) (93 км)
Погода в Аэропорту Vaeroy Heliport (Норвегия) (98 км)
Погода в Бодо (Норвегия) (99 км)

Пояснения к столбцам:

Ветер - указаны скорость ветра в м/с - средняя за 10 мин, порывы в срок и между сроками (в фигурных скобках) и направление, откуда дует ветер: С - северный, СВ - северо-восточный, В - восточный, ЮВ - юго-восточный, Ю - южный, ЮЗ - юго-западный, З - западный, СЗ - северо-западный.
Видимость - горизонтальная дальность видимости в метрах или километрах. При видимости от 1 до 10 км при отсутствии осадков обычно наблюдается дымка, при ухудшении видимости до 1 км и менее - туман. В сухую погоду видимость может ухудшаться дымом, пылью или мглою.
Явления - указаны атмосферные явления, наблюдавшиеся в срок или в последний час перед сроком; фигурными скобками обозначены явления, наблюдавшиеся между сроками (за 1-3 часа до срока); квадратными скобками обозначены град или гололедные отложения с указанием их диаметра в мм.
Облачность - указаны через наклонную черту общая и нижняя облачность в баллах и высота нижней границы облаков в метрах; квадратными скобками обозначены формы облаков: Ci - перистые, Cs - перисто-слоистые, Cc - перисто-кучевые, Ac - высококучевые, As - высокослоистые, Sc - слоисто-кучевые, Ns - слоисто-дождевые, Cu - кучевые, Cb - кучево-дождевые. Подробнее классификацию облаков см. в Атласе облаков (PDF).
T - Температура воздуха - температура, измеренная на высоте 2 м над землей.
Td - Температура точки росы - температура, при понижении до которой содержащийся в воздухе водяной пар достигнет насыщения.
f - Относительная влажность воздуха - влажноcть воздуха, измеренная на высоте 2 м над землей.
Te - Эффективная температура - температура, которую ощущает одетый по сезону человек в тени. Характеристика душности погоды. При расчете учитывается влияние влажности воздуха и скорости ветра на теплоощущения человека.
Tes - Эффективная температура на солнце - температура, которую ощущает человек, с поправкой на солнечный нагрев. Характеристика знойности погоды. Зависит от высоты солнца над горизонтом, облачности и скорости ветра. Ночью, в пасмурную погоду, а также при ветре 12 м/с и более поправка равна нулю.
P - Атмосферное давление - приведенное к уровню моря атмосферное давление.
Po - Атмосферное давление - измеренное на уровне метеостанции атмосферное давление.
Tmin - Минимальная температура - минимум температуры воздуха на высоте 2 м над землей.
Tmax - Максимальная температура - максимум температуры воздуха на высоте 2 м над землей.
R - Количество осадков - Количество выпавших осадков за период времени, мм. При наведении курсора мыши на число - период времени, за который выпало указанное количество осадков.
R24 - Количество осадков - Количество выпавших осадков за 24 часа, мм.
S - Снежный покров - Высота снежного покрова, см. При наведении курсора мыши на число - состояние снежного покрова и степень покрытия местности в баллах.